K5IDL Weather Reports


Display with metric or nautical units.
time (UTC)temp
F
wind
direction
speed
MPH
gust
MPH
rain 1hr
in
rain 24hr
in
rain mn
in
humidity
%
barometer
mb
20260506001743 77 79 0.0 1.0 0.00 0.00 0.00 67 1006.6
20260506001241 78 327 0.0 0.0 0.00 0.00 0.00 66 1006.6
20260506001122 79 354 0.0 1.0 0.00 0.00 0.00 64 1006.7
20260506000738 79 116 0.0 0.0 0.00 0.00 0.00 64 1006.3
20260506000235 79 323 0.0 1.0 0.00 0.00 0.00 64 1006.0
20260506000147 80 264 1.0 1.0 0.00 0.00 0.00 63 1006.4
20260505235732 80 253 1.0 1.0 0.00 0.00 0.00 63 1006.0
20260505235230 80 332 0.0 1.0 0.00 0.00 0.00 63 1005.9
20260505235212 80 359 1.0 2.0 0.00 0.00 0.00 63 1006.3
20260505234727 80 51 1.0 1.0 0.00 0.00 0.00 63 1006.1
20260505234258 81 330 1.0 2.0 0.00 0.00 0.00 61 1006.2
20260505234224 81 284 1.0 1.0 0.00 0.00 0.00 62 1006.2
20260505233720 82 260 1.0 2.0 0.00 0.00 0.00 61 1005.8
20260505233219 82 16 1.0 2.0 0.00 0.00 0.00 60 1005.9
20260505233201 83 323 1.0 2.0 0.00 0.00 0.00 60 1006.2
20260505232715 83 173 1.0 1.0 0.00 0.00 0.00 59 1005.8
20260505232306 85 251 1.0 2.0 0.00 0.00 0.00 56 1005.9
20260505232213 84 32 1.0 1.0 0.00 0.00 0.00 58 1005.7
20260505231709 85 197 0.0 1.0 0.00 0.00 0.00 55 1005.6
20260505231208 86 24 0.0 0.0 0.00 0.00 0.00 51 1005.5
20260505231149 86 319 1.0 2.0 0.00 0.00 0.00 51 1005.6
20260505230706 86 5 1.0 1.0 0.00 0.00 0.00 51 1005.3
20260505230202 86 173 1.0 1.0 0.00 0.00 0.00 50 1005.1
20260505230111 86 321 1.0 1.0 0.00 0.00 0.00 49 1005.3
20260505225659 86 282 1.0 1.0 0.00 0.00 0.00 49 1005.0
20260505225240 87 269 1.0 2.0 0.00 0.00 0.00 48 1005.4
20260505225155 87 7 1.0 1.0 0.00 0.00 0.00 48 1005.2
20260505224651 88 57 1.0 2.0 0.00 0.00 0.00 47 1005.2
20260505224222 89 228 2.0 3.0 0.00 0.00 0.00 47 1005.2
20260505224149 88 255 2.0 2.0 0.00 0.00 0.00 47 1004.9
20260505223647 89 262 1.0 1.0 0.00 0.00 0.00 47 1005.1
20260505223228 90 284 0.0 2.0 0.00 0.00 0.00 53 1004.8
20260505223142 90 333 0.0 1.0 0.00 0.00 0.00 53 1004.6
20260505222638 90 311 0.0 0.0 0.00 0.00 0.00 53 1004.4
20260505222150 90 330 1.0 2.0 0.00 0.00 0.00 53 1004.7
20260505222135 90 298 1.0 2.0 0.00 0.00 0.00 53 1004.5
20260505221632 90 335 1.0 2.0 0.00 0.00 0.00 53 1004.4
20260505221216 90 325 0.0 2.0 0.00 0.00 0.00 53 1004.7
20260505221129 90 359 1.0 1.0 0.00 0.00 0.00 53 1004.3
20260505220627 90 351 0.0 1.0 0.00 0.00 0.00 53 1004.5
20260505220138 91 350 0.0 2.0 0.00 0.00 0.00 53 1004.9
20260505220124 91 354 0.0 1.0 0.00 0.00 0.00 53 1004.5
20260505215621 91 47 0.0 1.0 0.00 0.00 0.00 53 1004.8
20260505215204 90 286 1.0 1.0 0.00 0.00 0.00 53 1004.9
20260505215119 90 296 1.0 1.0 0.00 0.00 0.00 52 1004.6
20260505214617 90 232 1.0 2.0 0.00 0.00 0.00 53 1004.8
20260505214230 90 293 2.0 4.0 0.00 0.00 0.00 53 1004.9
20260505214114 90 275 3.0 4.0 0.00 0.00 0.00 52 1004.6
20260505213611 91 292 1.0 2.0 0.00 0.00 0.00 53 1004.7
20260505213152 89 310 1.0 3.0 0.00 0.00 0.00 54 1005.1
20260505213108 90 302 2.0 3.0 0.00 0.00 0.00 54 1004.7
20260505212603 89 295 1.0 1.0 0.00 0.00 0.00 55 1005.0
20260505212218 89 323 1.0 2.0 0.00 0.00 0.00 54 1005.2
20260505212102 89 315 1.0 2.0 0.00 0.00 0.00 55 1004.7
20260505211558 90 293 2.0 3.0 0.00 0.00 0.00 54 1004.9
20260505211140 89 245 2.0 4.0 0.00 0.00 0.00 54 1005.3
20260505211056 89 275 2.0 3.0 0.00 0.00 0.00 54 1005.0
20260505210552 90 337 1.0 1.0 0.00 0.00 0.00 54 1005.2
20260505210205 90 282 1.0 3.0 0.00 0.00 0.00 56 1005.4
20260505210049 90 246 1.0 2.0 0.00 0.00 0.00 54 1005.0
20260505205547 89 317 0.0 0.0 0.00 0.00 0.00 58 1005.0
20260505205202 89 288 2.0 4.0 0.00 0.00 0.00 58 1005.4
20260505205044 89 271 3.0 4.0 0.00 0.00 0.00 58 1005.3
20260505204541 89 297 0.0 1.0 0.00 0.00 0.00 59 1005.4
20260505204250 89 287 1.0 2.0 0.00 0.00 0.00 58 1005.6
20260505204039 89 272 1.0 2.0 0.00 0.00 0.00 58 1005.1
20260505203535 89 308 2.0 2.0 0.00 0.00 0.00 59 1005.6
20260505203213 89 312 1.0 3.0 0.00 0.00 0.00 59 1005.8
20260505203032 89 283 0.0 1.0 0.00 0.00 0.00 58 1005.5
20260505202528 88 309 0.0 0.0 0.00 0.00 0.00 60 1005.6
20260505202134 89 257 1.0 2.0 0.00 0.00 0.00 59 1005.8
20260505202024 89 331 1.0 1.0 0.00 0.00 0.00 59 1005.4
20260505201522 88 317 2.0 2.0 0.00 0.00 0.00 59 1005.5
20260505201200 88 351 1.0 3.0 0.00 0.00 0.00 59 1005.7
20260505201019 88 324 0.0 1.0 0.00 0.00 0.00 58 1005.4
20260505200517 89 338 0.0 0.0 0.00 0.00 0.00 59 1005.4
20260505200122 88 250 1.0 3.0 0.00 0.00 0.00 59 1006.0
20260505200014 88 115 3.0 3.0 0.00 0.00 0.00 59 1005.5
20260505195509 88 267 1.0 1.0 0.00 0.00 0.00 60 1005.7
20260505195251 88 208 2.0 3.0 0.00 0.00 0.00 59 1005.9
20260505195007 88 188 2.0 2.0 0.00 0.00 0.00 57 1005.5
20260505194504 88 328 1.0 1.0 0.00 0.00 0.00 60 1005.8
20260505194213 88 297 1.0 3.0 0.00 0.00 0.00 58 1006.2
20260505194004 88 223 1.0 2.0 0.00 0.00 0.00 58 1005.8
20260505193502 88 309 1.0 2.0 0.00 0.00 0.00 60 1005.6
20260505193319 88 41 1.0 3.0 0.00 0.00 0.00 60 1006.0
20260505192959 88 107 2.0 3.0 0.00 0.00 0.00 60 1005.6
20260505192458 87 261 1.0 2.0 0.00 0.00 0.00 61 1005.6
20260505192202 87 258 2.0 3.0 0.00 0.00 0.00 62 1006.0
20260505191955 87 321 2.0 3.0 0.00 0.00 0.00 62 1005.8
20260505191453 87 63 2.0 4.0 0.00 0.00 0.00 60 1005.6
20260505191123 86 258 2.0 4.0 0.00 0.00 0.00 63 1006.0
20260505190950 86 315 1.0 2.0 0.00 0.00 0.00 62 1005.6
20260505190445 85 172 0.0 1.0 0.00 0.00 0.00 64 1005.8
20260505190149 86 320 1.0 3.0 0.00 0.00 0.00 63 1006.0
20260505185941 86 300 1.0 1.0 0.00 0.00 0.00 64 1005.8
20260505185438 86 28 1.0 1.0 0.00 0.00 0.00 64 1005.6
20260505185214 85 174 0.0 1.0 0.00 0.00 0.00 64 1006.2
20260505184934 85 342 0.0 0.0 0.00 0.00 0.00 64 1005.8
20260505184431 85 52 1.0 2.0 0.00 0.00 0.00 64 1005.8
20260505184300 85 324 1.0 3.0 0.00 0.00 0.00 65 1006.2
20260505183928 85 341 1.0 1.0 0.00 0.00 0.00 65 1006.1
20260505183424 85 214 2.0 3.0 0.00 0.00 0.00 66 1006.0
20260505183202 84 150 1.0 4.0 0.00 0.00 0.00 67 1006.3
20260505182922 84 337 0.0 1.0 0.00 0.00 0.00 66 1005.9
20260505182419 83 282 1.0 2.0 0.00 0.00 0.00 67 1006.0
20260505182228 84 272 2.0 3.0 0.00 0.00 0.00 67 1006.2
20260505181915 83 278 1.0 1.0 0.00 0.00 0.00 67 1005.9
20260505181412 84 340 0.0 1.0 0.00 0.00 0.00 67 1006.0
20260505181150 84 288 1.0 2.0 0.00 0.00 0.00 66 1006.2
20260505180909 84 320 1.0 1.0 0.00 0.00 0.00 66 1006.1
20260505180405 84 238 3.0 6.0 0.00 0.00 0.00 66 1006.0
20260505180112 84 239 3.0 4.0 0.00 0.00 0.00 65 1006.2
20260505175902 84 347 1.0 2.0 0.00 0.00 0.00 65 1005.9
20260505175358 84 326 1.0 2.0 0.00 0.00 0.00 66 1005.9
20260505175240 83 7 2.0 3.0 0.00 0.00 0.00 67 1006.1
20260505174855 83 343 2.0 3.0 0.00 0.00 0.00 67 1005.7
20260505174353 83 313 1.0 2.0 0.00 0.00 0.00 68 1006.1
20260505174306 83 290 1.0 3.0 0.00 0.00 0.00 67 1006.3
20260505173848 83 223 2.0 2.0 0.00 0.00 0.00 67 1006.0
20260505173344 82 337 2.0 2.0 0.00 0.00 0.00 68 1005.9
20260505173249 82 141 2.0 4.0 0.00 0.00 0.00 69 1006.4
20260505172842 82 152 3.0 4.0 0.00 0.00 0.00 69 1006.0
20260505164528 81 161 2.0 3.0 0.00 0.00 0.00 69 1006.1
20260505164026 81 161 2.0 3.0 0.00 0.00 0.00 69 1006.1
20260505163525 81 17 2.0 2.0 0.00 0.00 0.00 69 1006.0
20260505163307 79 238 2.0 3.0 0.00 0.00 0.00 71 1006.4
20260505163021 79 99 2.0 3.0 0.00 0.00 0.00 72 1006.1
20260505162515 80 222 5.0 7.0 0.00 0.00 0.00 71 1006.0
20260505162147 80 255 2.0 3.0 0.00 0.00 0.00 70 1006.2
20260505162011 80 235 2.0 2.0 0.00 0.00 0.00 70 1005.9
20260505161508 80 340 1.0 1.0 0.00 0.00 0.00 71 1005.7
20260505161212 80 282 1.0 4.0 0.00 0.00 0.00 71 1006.1
20260505161006 80 305 0.0 1.0 0.00 0.00 0.00 71 1005.7
20260505160503 79 332 1.0 1.0 0.00 0.00 0.00 72 1005.8
20260505160117 79 262 2.0 4.0 0.00 0.00 0.00 72 1005.9
20260505153232 78 288 1.0 2.0 0.00 0.00 0.00 74 1005.7
20260505152940 79 271 1.0 2.0 0.00 0.00 0.00 73 1005.3
20260505152437 78 332 1.0 1.0 0.00 0.00 0.00 75 1005.5
20260505152155 77 257 2.0 3.0 0.00 0.00 0.00 75 1006.1
20260505151938 77 79 1.0 2.0 0.00 0.00 0.00 75 1005.7
20260505151433 78 291 1.0 2.0 0.00 0.00 0.00 75 1005.8
20260505151220 78 59 1.0 3.0 0.00 0.00 0.00 75 1006.1
20260505150931 78 122 2.0 3.0 0.00 0.00 0.00 75 1006.0
20260505150428 78 342 2.0 2.0 0.00 0.00 0.00 74 1005.9
20260505150142 78 36 2.0 3.0 0.00 0.00 0.00 74 1006.1
20260505140358 75 266 0.0 0.0 0.00 0.00 0.00 79 1005.7
20260505140209 74 248 1.0 4.0 0.00 0.00 0.00 80 1006.1
20260505130135 73 338 1.0 2.0 0.00 0.00 0.00 83 1005.7
20260505124811 73 348 0.0 1.0 0.00 0.00 0.00 83 1005.3
20260505124308 73 285 0.0 1.0 0.00 0.00 0.00 83 1005.4
20260505124225 73 145 1.0 2.0 0.00 0.00 0.00 83 1005.6
20260505123804 73 97 1.0 2.0 0.00 0.00 0.00 83 1005.4
20260505123301 73 322 1.0 1.0 0.00 0.00 0.00 83 1004.9
20260505123224 73 20 0.0 2.0 0.00 0.00 0.00 83 1005.2
20260505122757 73 338 1.0 1.0 0.00 0.00 0.00 83 1004.9
20260505122255 73 206 2.0 3.0 0.00 0.00 0.00 83 1004.7
20260505122220 73 177 1.0 4.0 0.00 0.00 0.00 82 1005.1
20260505121751 73 270 1.0 2.0 0.00 0.00 0.00 82 1005.0
20260505121248 73 34 1.0 2.0 0.00 0.00 0.00 82 1004.8
20260505121217 73 299 2.0 3.0 0.00 0.00 0.00 82 1005.2
20260505120744 73 301 1.0 1.0 0.00 0.00 0.00 82 1004.9
20260505120240 73 18 1.0 1.0 0.00 0.00 0.00 83 1004.8
20260505120156 73 344 1.0 3.0 0.00 0.00 0.00 83 1005.1
20260505115739 73 50 2.0 3.0 0.00 0.00 0.00 83 1004.8
20260505115237 73 172 4.0 7.0 0.00 0.00 0.00 83 1005.0
20260505115119 73 262 1.0 3.0 0.00 0.00 0.00 83 1005.1
20260505114734 73 316 0.0 0.0 0.00 0.00 0.00 83 1004.7
20260505114247 73 283 1.0 3.0 0.00 0.00 0.00 82 1005.0
20260505114230 73 338 0.0 1.0 0.00 0.00 0.00 82 1004.7
20260505113727 73 274 2.0 3.0 0.00 0.00 0.00 82 1004.7
20260505113230 73 233 1.0 4.0 0.00 0.00 0.00 82 1004.9
20260505113223 73 274 1.0 2.0 0.00 0.00 0.00 82 1004.6
20260505112720 73 211 1.0 2.0 0.00 0.00 0.00 82 1004.6
20260505112236 72 327 2.0 4.0 0.00 0.00 0.00 83 1004.9
20260505112218 73 250 2.0 2.0 0.00 0.00 0.00 82 1004.6
20260505111717 72 329 1.0 2.0 0.00 0.00 0.00 83 1004.7
20260505111214 72 191 2.0 2.0 0.00 0.00 0.00 84 1004.3
20260505111158 72 280 1.0 3.0 0.00 0.00 0.00 84 1004.7
20260505110709 72 321 1.0 1.0 0.00 0.00 0.00 84 1004.4
20260505110207 72 37 2.0 2.0 0.00 0.00 0.00 84 1004.5
20260505110120 72 321 1.0 4.0 0.00 0.00 0.00 84 1004.7
20260505102200 72 138 1.0 2.0 0.00 0.00 0.00 83 1004.8
20260505102142 72 256 1.0 2.0 0.00 0.00 0.00 83 1004.4
20260505101641 72 99 1.0 1.0 0.00 0.00 0.00 83 1004.6
20260505101226 72 227 2.0 4.0 0.00 0.00 0.00 83 1004.8
20260505101137 72 302 0.0 1.0 0.00 0.00 0.00 83 1004.5
20260505100633 72 218 3.0 4.0 0.00 0.00 0.00 83 1004.4
20260505100148 72 242 1.0 4.0 0.00 0.00 0.00 83 1004.8
20260505100130 72 2 2.0 3.0 0.00 0.00 0.00 83 1004.6
20260505095626 72 342 0.0 0.0 0.00 0.00 0.00 83 1004.5
20260505095123 72 242 2.0 2.0 0.00 0.00 0.00 83 1004.5
20260505095111 72 331 2.0 4.0 0.00 0.00 0.00 83 1004.9
20260505094620 72 336 2.0 4.0 0.00 0.00 0.00 83 1004.6
20260505094240 72 344 1.0 3.0 0.00 0.00 0.00 84 1005.1
20260505094116 72 197 0.0 1.0 0.00 0.00 0.00 84 1004.8
20260505093612 72 332 1.0 1.0 0.00 0.00 0.00 84 1004.6
20260505093202 72 306 1.0 4.0 0.00 0.00 0.00 84 1005.2
20260505093110 72 251 0.0 1.0 0.00 0.00 0.00 84 1004.8
20260505092607 72 333 0.0 1.0 0.00 0.00 0.00 84 1004.8
20260505092228 72 249 1.0 3.0 0.00 0.00 0.00 84 1005.3
20260505092106 72 158 2.0 3.0 0.00 0.00 0.00 84 1005.0
20260505091602 72 28 2.0 2.0 0.00 0.00 0.00 84 1005.0
20260505091150 72 318 1.0 3.0 0.00 0.00 0.00 84 1005.4
20260505091100 72 265 0.0 0.0 0.00 0.00 0.00 84 1005.2
20260505090558 71 270 1.0 1.0 0.00 0.00 0.00 84 1005.0
20260505090215 71 303 2.0 6.0 0.00 0.00 0.00 84 1005.3
20260505090056 71 357 1.0 1.0 0.00 0.00 0.00 84 1005.0
20260505085553 71 265 2.0 2.0 0.00 0.00 0.00 84 1004.9
20260505085137 71 334 1.0 3.0 0.00 0.00 0.00 84 1005.1
20260505085051 71 36 2.0 3.0 0.00 0.00 0.00 84 1004.8
20260505084549 71 69 1.0 1.0 0.00 0.00 0.00 84 1004.9
20260505084202 71 315 1.0 2.0 0.00 0.00 0.00 84 1005.2
20260505084047 71 343 0.0 0.0 0.00 0.00 0.00 85 1004.9
20260505083544 71 308 0.0 1.0 0.00 0.00 0.00 84 1005.0
20260505083228 71 221 1.0 3.0 0.00 0.00 0.00 84 1005.2
20260505083040 71 243 1.0 2.0 0.00 0.00 0.00 84 1004.8
20260505082536 71 344 1.0 1.0 0.00 0.00 0.00 84 1005.0
20260505082151 71 239 1.0 4.0 0.00 0.00 0.00 84 1005.4
20260505082033 71 195 1.0 2.0 0.00 0.00 0.00 84 1005.2
20260505081529 71 217 1.0 2.0 0.00 0.00 0.00 83 1005.0
20260505081216 72 105 1.0 2.0 0.00 0.00 0.00 83 1005.3
20260505081027 72 104 2.0 2.0 0.00 0.00 0.00 83 1004.9
20260505080523 72 50 1.0 1.0 0.00 0.00 0.00 83 1004.9
20260505080239 72 222 1.0 4.0 0.00 0.00 0.00 83 1005.5
20260505080020 72 267 1.0 1.0 0.00 0.00 0.00 83 1005.1
20260505075515 72 308 1.0 1.0 0.00 0.00 0.00 83 1005.2
20260505075204 72 340 1.0 4.0 0.00 0.00 0.00 82 1005.6
20260505075013 72 335 0.0 0.0 0.00 0.00 0.00 82 1005.3
20260505074510 72 339 2.0 2.0 0.00 0.00 0.00 82 1005.3
20260505074230 72 302 1.0 3.0 0.00 0.00 0.00 82 1005.7
20260505074007 72 233 1.0 2.0 0.00 0.00 0.00 82 1005.3
20260505073504 72 348 0.0 0.0 0.00 0.00 0.00 82 1005.6
20260505073151 72 106 1.0 3.0 0.00 0.00 0.00 81 1005.9
20260505073002 72 348 1.0 1.0 0.00 0.00 0.00 81 1005.7
20260505072458 72 283 2.0 3.0 0.00 0.00 0.00 81 1005.8
20260505072217 72 113 1.0 3.0 0.00 0.00 0.00 81 1006.2
20260505071954 72 82 1.0 1.0 0.00 0.00 0.00 81 1005.9
20260505071450 73 301 0.0 1.0 0.00 0.00 0.00 80 1006.0
20260505071200 73 240 1.0 2.0 0.00 0.00 0.00 80 1006.2
20260505070948 73 308 0.0 1.0 0.00 0.00 0.00 80 1005.9
20260505070444 73 8 0.0 0.0 0.00 0.00 0.00 80 1006.0
20260505070205 73 201 2.0 3.0 0.00 0.00 0.00 79 1006.3
20260505065940 73 232 1.0 2.0 0.00 0.00 0.00 79 1006.0
20260505065437 73 302 1.0 1.0 0.00 0.00 0.00 79 1006.0
20260505065127 73 215 2.0 3.0 0.00 0.00 0.00 79 1006.5
20260505064933 73 342 1.0 2.0 0.00 0.00 0.00 79 1006.1
20260505064431 73 301 0.0 1.0 0.00 0.00 0.00 78 1006.1
20260505064256 73 150 1.0 2.0 0.00 0.00 0.00 78 1006.5
20260505063929 73 345 0.0 0.0 0.00 0.00 0.00 78 1006.3
20260505063425 73 64 1.0 2.0 0.00 0.00 0.00 78 1006.3
20260505063218 73 254 0.0 2.0 0.00 0.00 0.00 77 1006.6
20260505062922 73 294 0.0 0.0 0.00 0.00 0.00 77 1006.3
20260505062419 73 220 5.0 6.0 0.00 0.00 0.00 77 1006.2
20260505062201 73 251 1.0 2.0 0.00 0.00 0.00 77 1006.6
20260505061915 73 201 0.0 1.0 0.00 0.00 0.00 77 1006.4
20260505061414 73 211 2.0 2.0 0.00 0.00 0.00 77 1006.4
20260505061205 73 348 2.0 3.0 0.00 0.00 0.00 77 1006.6
20260505060911 73 238 2.0 3.0 0.00 0.00 0.00 77 1006.4
20260505060408 73 90 4.0 7.0 0.00 0.00 0.00 76 1006.0
20260505060128 73 313 1.0 6.0 0.00 0.00 0.00 76 1006.5
20260505055904 73 251 2.0 3.0 0.00 0.00 0.00 76 1006.3
20260505055400 73 348 1.0 1.0 0.00 0.00 0.00 76 1006.3
20260505055214 74 263 2.0 4.0 0.00 0.00 0.00 75 1006.7
20260505054857 74 264 1.0 2.0 0.00 0.00 0.00 75 1006.3
20260505054354 74 345 0.0 1.0 0.00 0.00 0.00 75 1006.4
20260505054220 74 338 1.0 2.0 0.00 0.00 0.00 75 1006.7
20260505053853 74 129 2.0 2.0 0.00 0.00 0.00 75 1006.5
20260505053350 74 189 2.0 3.0 0.00 0.00 0.00 74 1006.5
20260505053245 74 218 1.0 4.0 0.00 0.00 0.00 74 1006.9
20260505052846 74 104 1.0 2.0 0.00 0.00 0.00 74 1006.6
20260505052343 74 313 1.0 2.0 0.00 0.00 0.00 74 1006.6
20260505052208 74 38 1.0 2.0 0.00 0.00 0.00 74 1007.2
20260505051840 74 253 1.0 1.0 0.00 0.00 0.00 74 1006.8
20260505051337 74 258 1.0 1.0 0.00 0.00 0.00 74 1006.8
20260505051234 74 298 2.0 3.0 0.00 0.00 0.00 73 1007.1
20260505050835 74 65 0.0 0.0 0.00 0.00 0.00 73 1006.7
20260505050334 74 348 1.0 1.0 0.00 0.00 0.00 73 1006.8
20260505050156 74 344 1.0 3.0 0.00 0.00 0.00 73 1007.1
20260505041758 75 265 1.0 1.0 0.00 0.00 0.00 71 1006.8
20260505041255 75 275 2.0 3.0 0.00 0.00 0.00 71 1007.1
20260505041158 75 257 2.0 3.0 0.00 0.00 0.00 71 1007.3
20260505040753 75 202 1.0 1.0 0.00 0.00 0.00 71 1006.9
20260505040250 75 198 2.0 2.0 0.00 0.00 0.00 71 1007.1
20260505040223 75 317 1.0 6.0 0.00 0.00 0.00 71 1007.3
20260505035747 75 221 2.0 3.0 0.00 0.00 0.00 71 1006.9
20260505035242 75 264 2.0 3.0 0.00 0.00 0.00 70 1006.9
20260505035146 75 324 1.0 1.0 0.00 0.00 0.00 70 1007.1
20260505034740 75 313 0.0 1.0 0.00 0.00 0.00 70 1006.9
20260505034237 75 80 2.0 2.0 0.00 0.00 0.00 70 1006.7
20260505034108 75 239 1.0 2.0 0.00 0.00 0.00 70 1007.1
20260505033733 75 243 2.0 2.0 0.00 0.00 0.00 70 1006.8
20260505033237 75 131 1.0 6.0 0.00 0.00 0.00 69 1007.3
20260505033231 75 227 2.0 2.0 0.00 0.00 0.00 69 1007.0
20260505032729 75 106 2.0 2.0 0.00 0.00 0.00 69 1007.0
20260505032224 75 210 2.0 3.0 0.00 0.00 0.00 69 1006.9
20260505032159 75 305 1.0 3.0 0.00 0.00 0.00 69 1007.3
20260505031722 75 338 0.0 1.0 0.00 0.00 0.00 69 1007.0
20260505031225 75 337 1.0 2.0 0.00 0.00 0.00 69 1007.4
20260505031218 75 318 1.0 1.0 0.00 0.00 0.00 69 1007.0
20260505030715 75 345 1.0 2.0 0.00 0.00 0.00 69 1007.0
20260505030211 75 216 1.0 2.0 0.00 0.00 0.00 69 1007.2
20260505030146 75 215 1.0 7.0 0.00 0.00 0.00 69 1007.4
20260505025707 75 327 0.0 1.0 0.00 0.00 0.00 69 1007.1
20260505025233 76 245 2.0 3.0 0.00 0.00 0.00 68 1007.3
20260505025206 76 267 1.0 2.0 0.00 0.00 0.00 69 1007.3
20260505024704 76 338 2.0 2.0 0.00 0.00 0.00 68 1006.9
20260505024200 76 218 2.0 2.0 0.00 0.00 0.00 68 1007.2
20260505024135 76 70 1.0 3.0 0.00 0.00 0.00 68 1007.5
20260505023658 76 238 1.0 2.0 0.00 0.00 0.00 68 1007.1
20260505023200 76 280 1.0 2.0 0.00 0.00 0.00 68 1007.4
20260505023155 76 7 1.0 1.0 0.00 0.00 0.00 68 1007.0
20260505022652 76 276 1.0 2.0 0.00 0.00 0.00 68 1007.0
20260505022225 76 237 1.0 2.0 0.00 0.00 0.00 68 1007.5
20260505022149 76 36 0.0 1.0 0.00 0.00 0.00 68 1007.2
20260505021646 76 229 0.0 1.0 0.00 0.00 0.00 67 1007.1
20260505021148 76 303 1.0 2.0 0.00 0.00 0.00 67 1007.4
20260505021142 76 320 0.0 1.0 0.00 0.00 0.00 67 1007.2
20260505020638 76 356 1.0 2.0 0.00 0.00 0.00 67 1006.9
20260505020214 76 192 1.0 4.0 0.00 0.00 0.00 67 1007.4
20260505020134 76 356 0.0 1.0 0.00 0.00 0.00 67 1007.0
20260505015631 76 348 1.0 1.0 0.00 0.00 0.00 66 1007.1
20260505015136 77 26 1.0 2.0 0.00 0.00 0.00 66 1007.5
20260505015128 77 353 0.0 0.0 0.00 0.00 0.00 66 1007.1
20260505014625 77 14 1.0 1.0 0.00 0.00 0.00 66 1007.2
20260505014202 77 333 1.0 3.0 0.00 0.00 0.00 66 1007.5
20260505014121 77 210 2.0 3.0 0.00 0.00 0.00 66 1007.2
20260505013619 77 10 0.0 0.0 0.00 0.00 0.00 66 1007.2
20260505013247 77 300 2.0 4.0 0.00 0.00 0.00 65 1007.4
20260505013116 77 16 2.0 2.0 0.00 0.00 0.00 65 1007.2
20260505012614 77 323 0.0 0.0 0.00 0.00 0.00 65 1007.2
20260505012210 77 209 2.0 6.0 0.00 0.00 0.00 65 1007.4
20260505012106 77 356 0.0 1.0 0.00 0.00 0.00 65 1007.0
20260505011601 77 358 0.0 1.0 0.00 0.00 0.00 65 1007.1
20260505011215 77 185 1.0 6.0 0.00 0.00 0.00 64 1007.4
20260505011058 77 221 2.0 6.0 0.00 0.00 0.00 65 1007.1
20260505010553 77 307 0.0 1.0 0.00 0.00 0.00 64 1007.1
20260505010137 77 300 1.0 2.0 0.00 0.00 0.00 64 1007.3
20260505010050 77 43 1.0 1.0 0.00 0.00 0.00 64 1007.1
20260505005546 77 162 1.0 2.0 0.00 0.00 0.00 64 1006.9
20260505005203 78 97 1.0 4.0 0.00 0.00 0.00 63 1007.4
20260505005044 78 128 3.0 4.0 0.00 0.00 0.00 63 1006.9
20260505004540 78 316 2.0 4.0 0.00 0.00 0.00 63 1007.1
20260505004126 78 296 2.0 7.0 0.00 0.00 0.00 63 1007.4
20260505004037 78 259 0.0 1.0 0.00 0.00 0.00 63 1007.0
20260505003535 78 236 3.0 4.0 0.00 0.00 0.00 62 1007.2
20260505003254 78 289 1.0 2.0 0.00 0.00 0.00 62 1007.4
20260505003032 78 272 1.0 2.0 0.00 0.00 0.00 62 1007.1
20260505002532 78 334 1.0 1.0 0.00 0.00 0.00 62 1007.2
20260505002217 78 336 1.0 3.0 0.00 0.00 0.00 61 1007.5
20260505002032 78 117 1.0 3.0 0.00 0.00 0.00 62 1007.1